Date String (YYYY-MM-DD hh:mm:ss) UTC,Instrument flags,absolute air pressure of the measurement (hPa),sample flow rate (lpm),inlet stack bypass flow (lpm),air temperature of the measurement (°C),ambient temperature measured by the external sensor (°C),aerosol sample conditioner tube jacket temperature (°C),OPC LED temperature (°C),internal box temperature (°C),relative humidity of the measurement (%),span deviation,mass concentration of particles derived from Lorenz-Mie calculation of OPC scattering (μg/m³),mass concentration of particles derived from Lorenz-Mie calculation of OPC scattering (μg/m³),mass concentration of particles derived from Lorenz-Mie calculation of OPC scattering (μg/m³)
DateTimeUTC,F1_M11,P_M11,Q1_M11,Q2_M11,T1_M11,T2_M11,T3_M11,T4_M11,T5_M11,U1_M11,ZSPAN_M11,X2_M11,X0_M11,X1_M11
2023-08-10 04:00:00,SystemResetWarning,0830.9,4.99,000.00,029.2,027.4,000.0,037.7,030.9,25.7,0000.0,0005.67,0013.26,0004.85
2023-08-10 04:01:00,SystemResetWarning,0830.9,4.99,000.00,029.2,027.7,000.0,037.7,031.0,25.7,0000.0,0005.70,0013.49,0004.85
2023-08-10 04:02:00,SystemResetWarning,0830.9,5.00,000.00,029.3,027.9,000.0,037.7,031.0,25.6,0000.0,0005.67,0013.45,0004.84
2023-08-10 04:03:00,SystemResetWarning,0830.9,5.00,000.00,029.3,028.0,000.0,037.7,031.1,25.6,0000.0,0005.69,0013.59,0004.86
2023-08-10 04:04:00,SystemResetWarning,0830.9,5.01,000.00,029.3,028.2,000.0,037.8,031.1,25.5,0000.0,0005.70,0013.36,0004.86
2023-08-10 04:05:00,SystemResetWarning,0830.9,4.99,000.00,029.4,027.2,000.0,037.7,031.0,25.5,0000.0,0005.69,0013.87,0004.85
2023-08-10 04:06:00,SystemResetWarning,0830.8,5.00,000.00,029.3,025.7,000.0,037.6,030.7,25.5,0000.0,0005.73,0014.33,0004.85
2023-08-10 04:07:00,SystemResetWarning,0830.9,5.02,000.00,029.2,025.4,000.0,037.5,030.6,25.6,0000.0,0005.76,0015.25,0004.85
2023-08-10 04:08:00,SystemResetWarning,0830.8,5.00,000.00,029.2,025.7,000.0,037.5,030.5,25.8,0000.0,0005.85,0016.22,0004.86
2023-08-10 04:09:00,SystemResetWarning,0830.9,4.99,000.00,029.1,026.1,000.0,037.6,030.5,25.8,0000.0,0005.83,0016.16,0004.87
2023-08-10 04:10:00,SystemResetWarning,0830.8,5.01,000.00,029.1,026.5,000.0,037.6,030.7,25.9,0000.0,0005.79,0016.30,0004.86
2023-08-10 04:11:00,SystemResetWarning,0830.8,5.00,000.00,029.1,026.8,000.0,037.6,030.7,25.8,0000.0,0005.78,0016.62,0004.87
2023-08-10 04:12:00,SystemResetWarning,0830.8,4.99,000.00,029.2,027.1,000.0,037.7,030.8,25.7,0000.0,0005.77,0016.65,0004.87
2023-08-10 04:13:00,SystemResetWarning,0830.8,5.01,000.00,029.2,027.4,000.0,037.7,030.9,25.7,0000.0,0005.78,0016.14,0004.86
2023-08-10 04:14:00,SystemResetWarning,0830.9,5.00,000.00,029.2,027.7,000.0,037.7,031.0,25.7,0000.0,0005.79,0016.53,0004.85
2023-08-10 04:15:00,SystemResetWarning,0830.8,5.00,000.00,029.3,027.8,000.0,037.7,031.0,25.7,0000.0,0005.77,0016.54,0004.85
2023-08-10 04:16:00,SystemResetWarning,0830.8,5.00,000.00,029.3,028.0,000.0,037.7,031.0,25.8,0000.0,0005.74,0015.88,0004.84
2023-08-10 04:17:00,SystemResetWarning,0830.8,5.00,000.00,029.3,028.1,000.0,037.8,031.1,25.7,0000.0,0005.71,0016.30,0004.84
2023-08-10 04:18:00,SystemResetWarning,0830.8,5.00,000.00,029.4,028.2,000.0,037.8,031.1,25.5,0000.0,0005.72,0015.38,0004.84
2023-08-10 04:19:00,SystemResetWarning,0830.7,4.98,000.00,029.4,027.0,000.0,037.7,031.0,25.3,0000.0,0005.70,0015.21,0004.84
2023-08-10 04:20:00,SystemResetWarning,0830.7,5.01,000.00,029.3,025.5,000.0,037.6,030.7,25.5,0000.0,0005.72,0014.80,0004.84
2023-08-10 04:21:00,SystemResetWarning,0830.7,5.01,000.00,029.3,025.3,000.0,037.5,030.6,25.5,0000.0,0005.75,0014.48,0004.84
2023-08-10 04:22:00,SystemResetWarning,0830.7,5.00,000.00,029.2,025.6,000.0,037.6,030.5,25.7,0000.0,0005.82,0015.80,0004.84
2023-08-10 04:23:00,SystemResetWarning,0830.7,4.99,000.00,029.1,026.0,000.0,037.6,030.5,25.8,0000.0,0005.84,0015.67,0004.86
2023-08-10 04:24:00,SystemResetWarning,0830.7,5.00,000.00,029.1,026.4,000.0,037.6,030.6,25.7,0000.0,0005.86,0015.83,0004.87
2023-08-10 04:25:00,SystemResetWarning,0830.6,5.01,000.00,029.1,026.8,000.0,037.6,030.7,25.7,0000.0,0005.87,0015.00,0004.88
2023-08-10 04:26:00,SystemResetWarning,0830.6,4.99,000.00,029.1,027.1,000.0,037.7,030.8,25.7,0000.0,0005.88,0015.11,0004.89
2023-08-10 04:27:00,SystemResetWarning,0830.7,4.99,000.00,029.2,027.4,000.0,037.7,030.8,25.8,0000.0,0005.91,0016.24,0004.91
2023-08-10 04:28:00,SystemResetWarning,0830.7,5.01,000.00,029.2,027.6,000.0,037.7,030.9,25.8,0000.2,0005.94,0016.37,0004.93
2023-08-10 04:29:00,SystemResetWarning,0830.7,5.02,000.00,029.2,027.8,000.0,037.7,030.9,25.8,0000.9,0005.94,0016.46,0004.94
2023-08-10 04:30:00,SystemResetWarning,0830.6,4.99,000.00,029.3,027.9,000.0,037.7,031.0,25.9,0000.0,0005.93,0015.80,0004.94
2023-08-10 04:31:00,SystemResetWarning,0830.6,5.00,000.00,029.3,028.1,000.0,037.8,031.0,25.7,0000.0,0005.90,0017.44,0004.94
2023-08-10 04:32:00,SystemResetWarning,0830.6,5.00,000.00,029.3,028.2,000.0,037.8,031.1,25.8,0000.0,0005.90,0018.47,0004.96
2023-08-10 04:33:00,SystemResetWarning,0830.6,5.00,000.00,029.4,028.3,000.0,037.8,031.1,25.5,0000.0,0005.89,0017.07,0004.97
2023-08-10 04:34:00,SystemResetWarning,0830.6,5.00,000.00,029.4,028.3,000.0,037.8,031.2,25.4,0000.1,0005.87,0016.95,0004.96
2023-08-10 04:35:00,SystemResetWarning,0830.6,4.99,000.00,029.4,027.0,000.0,037.8,031.0,25.3,0000.4,0005.84,0017.58,0004.96
2023-08-10 04:36:00,SystemResetWarning,0830.6,5.02,000.00,029.4,025.5,000.0,037.6,030.8,25.4,0000.8,0005.85,0018.41,0004.97
2023-08-10 04:37:00,SystemResetWarning,0830.6,5.01,000.00,029.3,025.4,000.0,037.6,030.6,25.6,0000.6,0005.88,0017.95,0004.97
2023-08-10 04:38:00,SystemResetWarning,0830.6,5.00,000.00,029.2,025.6,000.0,037.6,030.5,25.8,0000.7,0005.90,0016.90,0004.96
2023-08-10 04:39:00,SystemResetWarning,0830.6,5.00,000.00,029.1,026.0,000.0,037.7,030.6,25.9,0000.2,0005.91,0016.28,0004.97
2023-08-10 04:40:00,SystemResetWarning,0830.6,5.00,000.00,029.1,026.4,000.0,037.7,030.7,26.0,0000.0,0005.91,0016.77,0004.97
2023-08-10 04:41:00,SystemResetWarning,0830.6,5.00,000.00,029.2,026.8,000.0,037.7,030.7,25.9,0000.0,0005.89,0016.90,0004.97
2023-08-10 04:42:00,SystemResetWarning,0830.6,5.00,000.00,029.2,027.1,000.0,037.7,030.8,25.9,0000.0,0005.89,0016.03,0004.97
2023-08-10 04:43:00,SystemResetWarning,0830.6,5.00,000.00,029.2,027.3,000.0,037.7,030.9,25.9,0000.0,0005.86,0015.24,0004.96
2023-08-10 04:44:00,SystemResetWarning,0830.6,5.01,000.00,029.2,027.6,000.0,037.7,030.9,25.9,0000.0,0005.83,0016.03,0004.95
2023-08-10 04:45:00,SystemResetWarning,0830.6,4.99,000.00,029.3,027.7,000.0,037.8,030.9,25.8,0000.0,0005.83,0015.93,0004.96
2023-08-10 04:46:00,SystemResetWarning,0830.6,5.00,000.00,029.3,027.9,000.0,037.8,031.0,25.7,0000.0,0005.83,0015.47,0004.95
2023-08-10 04:47:00,SystemResetWarning,0830.5,5.00,000.00,029.3,028.0,000.0,037.8,031.0,25.6,0000.0,0005.82,0015.15,0004.94
2023-08-10 04:48:00,SystemResetWarning,0830.5,5.00,000.00,029.4,028.1,000.0,037.8,031.1,25.5,0000.0,0005.81,0015.70,0004.94
2023-08-10 04:49:00,SystemResetWarning,0830.6,5.00,000.00,029.4,028.2,000.0,037.9,031.1,25.4,0000.0,0005.80,0016.23,0004.93
2023-08-10 04:50:00,SystemResetWarning,0830.5,5.00,000.00,029.4,028.3,000.0,037.9,031.2,25.4,0000.0,0005.77,0016.93,0004.93
2023-08-10 04:51:00,SystemResetWarning,0830.5,5.00,000.00,029.5,028.4,000.0,037.9,031.2,25.3,0000.0,0005.78,0016.50,0004.92
2023-08-10 04:52:00,SystemResetWarning,0830.4,5.00,000.00,029.5,028.1,000.0,037.9,031.2,25.3,0000.0,0005.81,0016.29,0004.93
2023-08-10 04:53:00,SystemResetWarning,0830.5,5.00,000.00,029.5,026.3,000.0,037.8,030.9,25.3,0000.0,0005.82,0016.67,0004.92
2023-08-10 04:54:00,SystemResetWarning,0830.4,5.01,000.00,029.4,025.3,000.0,037.7,030.7,25.3,0000.0,0005.84,0016.02,0004.92
2023-08-10 04:55:00,SystemResetWarning,0830.4,5.01,000.00,029.3,025.4,000.0,037.7,030.5,25.4,0000.0,0005.83,0014.86,0004.91
2023-08-10 04:56:00,SystemResetWarning,0830.4,5.01,000.00,029.2,025.7,000.0,037.7,030.5,25.6,0000.0,0005.80,0014.57,0004.90
2023-08-10 04:57:00,SystemResetWarning,0830.4,4.99,000.00,029.2,026.1,000.0,037.7,030.6,25.7,0000.0,0005.78,0014.64,0004.90
2023-08-10 04:58:00,SystemResetWarning,0830.4,5.00,000.00,029.2,026.5,000.0,037.7,030.7,25.6,0000.0,0005.77,0014.19,0004.91
2023-08-10 04:59:00,SystemResetWarning,0830.4,5.00,000.00,029.2,026.9,000.0,037.7,030.8,25.6,0000.0,0005.73,0013.20,0004.91
